Regional Weather Roundup
Issued by NWS Albany, NY

Home | Current Version | Previous Version | Text Only | Print | Product List | Glossary On
Versions: 1 2 3 4 5 6 7 8 9 10 11 12 13 14 15 16 17 18 19 20 21 22 23 24 25 26 27
000
ASUS41 KALY 070410
RWRALY

NEW YORK STATE HOURLY WEATHER ROUNDUP
NATIONAL WEATHER SERVICE ALBANY NY
1100 PM EST TUE DEC 06 2016

NOTE: "FAIR" INDICATES FEW OR NO CLOUDS BELOW 12,000 FEET WITH NO
SIGNIFICANT WEATHER AND/OR NO OBSTRUCTIONS TO VISIBILITY.

NYZ032-033-038>043-046>054-057>066-NYZ062>081-082-084-070500-
EAST


CITY           SKY/WX    TMP DP  RH WIND       PRES   REMARKS
ALBANY         FLURRIES  34  29  82 CALM      29.93F
GLENS FALLS    CLOUDY    33  28  81 NW3       29.94F
POUGHKEEPSIE   LGT SNOW  32  32 100 N5        29.91F FOG     WCI  27
NEWBURGH       LGT SNOW  32  32 100 NE7       29.91F WCI  26
MONTGOMERY     LGT SNOW  34  32  92 NE7       29.89F FOG     WCI  28
WHITE PLAINS   LGT RAIN  36  34  92 NE10      29.87F WCI  28
ISLIP          LGT RAIN  41  38  89 NE12      29.87F
NEW YORK CITY  LGT RAIN  43  38  82 E14       29.88F
CENTRAL PARK   CLOUDY    40  37  89 E7        29.90F
$$

NYZ005>009-017-018-044>046-055-056-070500-
CENTRAL


CITY           SKY/WX    TMP DP  RH WIND       PRES   REMARKS
FULTON         LGT SNOW  33  32  96 VRB3      29.85F VSB 1
SYRACUSE       LGT SNOW  32  32 100 E7        29.86F FOG     WCI  26
ROME           LGT SNOW  32  32 100 CALM      29.90S VSB 3/4
ELMIRA         LGT SNOW  34  31  88 N6        29.83S FOG     WCI  29
BINGHAMTON     LGT SNOW  31  31 100 SE5       29.81R VSB 3/4 WCI  26
MONTICELLO     CLOUDY    32  30  93 E10       29.85F WCI  24
$$

NYZ026>034-041>043-087-070500-
NORTH


CITY           SKY/WX    TMP DP  RH WIND       PRES   REMARKS
WATERTOWN      LGT RAIN  37  31  78 S7        29.88S WCI  32
FORT DRUM      NOT AVBL
OGDENSBURG     LGT SNOW  32  29  90 NE5       29.91S WCI  27
MASSENA        CLOUDY    30  24  78 E12       29.94F WCI  20
SARANAC LAKE   CLOUDY    26  23  88 NE7       29.84F WCI  18
PLATTSBURGH    CLOUDY    30  25  81 W3        29.96F
$$

NYZ001>004-010>016-019>021-085-070500-
WEST


CITY           SKY/WX    TMP DP  RH WIND       PRES   REMARKS
NIAGARA FALLS  DRIZZLE   37  34  89 SE6       29.75S WCI  32
BUFFALO        LGT RAIN  36  34  92 SE6       29.76R FOG     WCI  31
DUNKIRK        CLOUDY    38  35  89 SW7       29.75S WCI  33
JAMESTOWN      CLOUDY    34  32  93 S10       29.73S WCI  26
WELLSVILLE     CLOUDY    35  32  88 S13G20    29.76S FOG     WCI  26
ROCHESTER      LGT RAIN  34  33  96 SE10      29.80S FOG     WCI  26
PENN YAN       LGT RAIN  34  30  85 SE6       29.82S WCI  29
$$

             KEY
       WCI = WIND CHILL INDEX
       VSB = VISIBILITY
       HX  = HEAT INDEX
$$




USA.gov is the U.S. government's official web portal to all federal, state and local government web resources and services.